User: anonymous   Login
Location: Karaa?a�
(36.7158°N, 30.4165°E)
Time: 16:06:01
(UTC+00:00)
Language:

Cosmos 1328 - Orbit

View from above orbital plane
View from above orbital plane
View from above satellite
View from above satellite

Ground track
Ground track

The orbit data is extracted from the following two-line orbital elements,

1 12987U 81117A   20185.17539972  .00000109  00000-0  51498-5 0  9996
2 12987  82.5199 238.1131 0004887  97.5360 262.6424 15.08116555100058
Epoch (UTC): 03 July 2020 04:12:34
Eccentricity: 0.0004887
inclination: 82.5199°
perigee height: 538 km
apogee height: 545 km
right ascension of ascending node: 238.1131°
argument of perigee: 97.5360°
revolutions per day: 15.08116555
mean anomaly at epoch: 262.6424°
orbit number at epoch: 10005

The dashed part of the orbit path shows where the satellite is in the earth's shadow,  

DLR